TimeAKDT,TemperatureF,Dew PointF,Humidity,Sea Level PressureIn,VisibilityMPH,Wind Direction,Wind SpeedMPH,Gust SpeedMPH,PrecipitationIn,Events,Conditions,WindDirDegrees,DateUTC
12:16 AM,42.8,39.2,87,29.57,10.0,ESE,5.8,-,N/A,,Clear,120,2011-10-05 08:16:00
12:36 AM,42.8,39.2,87,29.58,10.0,SE,5.8,-,N/A,,Clear,140,2011-10-05 08:36:00
12:56 AM,42.8,39.2,87,29.59,10.0,SE,5.8,-,N/A,,Clear,130,2011-10-05 08:56:00
1:16 AM,39.2,37.4,93,29.59,10.0,SSE,4.6,-,N/A,,Clear,150,2011-10-05 09:16:00
1:36 AM,39.2,37.4,93,29.59,10.0,SE,4.6,-,N/A,,Clear,140,2011-10-05 09:36:00
1:56 AM,39.2,37.4,93,29.60,10.0,South,4.6,-,N/A,,Clear,170,2011-10-05 09:56:00
2:16 AM,39.2,37.4,93,29.60,10.0,SSE,3.5,-,N/A,,Clear,150,2011-10-05 10:16:00
2:36 AM,37.4,35.6,93,29.60,10.0,SSE,5.8,-,N/A,,Clear,160,2011-10-05 10:36:00
2:56 AM,39.2,37.4,93,29.60,10.0,SE,4.6,-,N/A,,Clear,130,2011-10-05 10:56:00
3:16 AM,39.2,35.6,87,29.61,10.0,SE,4.6,-,N/A,,Partly Cloudy,130,2011-10-05 11:16:00
3:36 AM,39.2,37.4,93,29.61,0.2,SE,5.8,-,N/A,,Overcast,140,2011-10-05 11:36:00
3:56 AM,39.2,37.4,93,29.61,0.2,SE,5.8,-,N/A,,Overcast,130,2011-10-05 11:56:00
4:16 AM,39.2,37.4,93,29.62,0.2,SE,4.6,-,N/A,,Overcast,130,2011-10-05 12:16:00
4:36 AM,39.2,37.4,93,29.62,0.2,SE,3.5,-,N/A,,Overcast,130,2011-10-05 12:36:00
4:56 AM,39.2,37.4,93,29.62,0.2,SE,4.6,-,N/A,,Overcast,140,2011-10-05 12:56:00
5:16 AM,39.2,37.4,93,29.63,0.2,Calm,Calm,-,N/A,,Overcast,0,2011-10-05 13:16:00
5:36 AM,37.4,35.6,93,29.63,0.2,South,4.6,-,N/A,,Overcast,170,2011-10-05 13:36:00
5:56 AM,37.4,35.6,93,29.64,0.5,SE,3.5,-,N/A,,Mostly Cloudy,140,2011-10-05 13:56:00
6:16 AM,35.6,33.8,93,29.65,0.5,SSE,4.6,-,N/A,,Mostly Cloudy,150,2011-10-05 14:16:00
6:36 AM,37.4,35.6,93,29.65,0.5,SE,5.8,-,N/A,,Mostly Cloudy,140,2011-10-05 14:36:00
6:56 AM,39.2,35.6,87,29.65,0.5,SSE,5.8,-,N/A,,Mostly Cloudy,150,2011-10-05 14:56:00
7:16 AM,37.4,35.6,93,29.66,0.5,South,4.6,-,N/A,,Mostly Cloudy,170,2011-10-05 15:16:00
7:36 AM,39.2,37.4,93,29.66,0.5,SE,4.6,-,N/A,,Mostly Cloudy,130,2011-10-05 15:36:00
7:56 AM,39.2,37.4,93,29.67,0.5,SE,5.8,-,N/A,,Mostly Cloudy,130,2011-10-05 15:56:00
8:16 AM,39.2,37.4,93,29.67,0.5,SE,4.6,-,N/A,,Mostly Cloudy,130,2011-10-05 16:16:00
8:36 AM,39.2,37.4,93,29.68,0.5,ESE,4.6,-,N/A,,Mostly Cloudy,110,2011-10-05 16:36:00
8:56 AM,39.2,37.4,93,29.68,0.5,SE,5.8,-,N/A,,Mostly Cloudy,140,2011-10-05 16:56:00
9:16 AM,39.2,37.4,93,29.69,0.5,SE,4.6,-,N/A,,Mostly Cloudy,130,2011-10-05 17:16:00
9:27 AM,39.2,37.4,93,29.69,0.5,East,3.5,-,N/A,,Mostly Cloudy,90,2011-10-05 17:27:00
9:36 AM,39.2,37.4,93,29.70,0.5,SE,3.5,-,N/A,,Mostly Cloudy,130,2011-10-05 17:36:00
9:56 AM,41.0,39.2,93,29.70,0.8,ESE,3.5,-,N/A,,Mostly Cloudy,120,2011-10-05 17:56:00
10:16 AM,41.0,39.2,93,29.70,0.8,Calm,Calm,-,N/A,,Mostly Cloudy,0,2011-10-05 18:16:00
10:30 AM,44.6,39.2,81,29.71,7.0,WNW,3.5,-,N/A,,Scattered Clouds,290,2011-10-05 18:30:00
10:36 AM,44.6,41.0,87,29.71,7.0,NW,4.6,-,N/A,,Scattered Clouds,310,2011-10-05 18:36:00
10:56 AM,44.6,39.2,81,29.71,10.0,NW,4.6,-,N/A,,Partly Cloudy,310,2011-10-05 18:56:00
11:16 AM,44.6,39.2,81,29.72,10.0,WNW,3.5,-,N/A,,Partly Cloudy,300,2011-10-05 19:16:00
11:36 AM,46.4,39.2,76,29.72,10.0,WNW,8.1,-,N/A,,Partly Cloudy,290,2011-10-05 19:36:00
11:56 AM,46.4,39.2,76,29.72,10.0,Calm,Calm,-,N/A,,Partly Cloudy,0,2011-10-05 19:56:00
12:16 PM,46.4,39.2,76,29.73,10.0,NW,3.5,-,N/A,,Partly Cloudy,320,2011-10-05 20:16:00
12:36 PM,48.2,39.2,71,29.73,10.0,NNW,3.5,-,N/A,,Partly Cloudy,340,2011-10-05 20:36:00
12:56 PM,48.2,39.2,71,29.73,10.0,NW,4.6,-,N/A,,Partly Cloudy,310,2011-10-05 20:56:00
1:16 PM,48.2,39.2,71,29.74,10.0,Calm,Calm,-,N/A,,Partly Cloudy,0,2011-10-05 21:16:00
1:36 PM,50.0,39.2,66,29.74,10.0,NW,4.6,-,N/A,,Partly Cloudy,320,2011-10-05 21:36:00
1:56 PM,50.0,39.2,66,29.74,10.0,Calm,Calm,-,N/A,,Partly Cloudy,0,2011-10-05 21:56:00
2:16 PM,48.2,41.0,76,29.74,10.0,NW,5.8,-,N/A,,Partly Cloudy,320,2011-10-05 22:16:00
2:36 PM,46.4,41.0,81,29.74,10.0,NNW,5.8,-,N/A,,Partly Cloudy,340,2011-10-05 22:36:00
2:56 PM,48.2,39.2,71,29.74,10.0,NNW,5.8,-,N/A,,Clear,340,2011-10-05 22:56:00
3:16 PM,48.2,39.2,71,29.75,10.0,NNW,5.8,-,N/A,,Clear,330,2011-10-05 23:16:00
3:36 PM,48.2,39.2,71,29.74,10.0,NW,3.5,-,N/A,,Clear,320,2011-10-05 23:36:00
3:56 PM,48.2,39.2,71,29.75,10.0,NNW,3.5,-,N/A,,Clear,340,2011-10-05 23:56:00
4:16 PM,48.2,39.2,71,29.75,10.0,NNW,3.5,-,N/A,,Clear,330,2011-10-06 00:16:00
4:36 PM,48.2,41.0,76,29.75,10.0,NNW,4.6,-,N/A,,Clear,340,2011-10-06 00:36:00
4:56 PM,48.2,41.0,76,29.76,10.0,NW,4.6,-,N/A,,Clear,320,2011-10-06 00:56:00
5:16 PM,46.4,41.0,81,29.76,10.0,NW,4.6,-,N/A,,Clear,310,2011-10-06 01:16:00
5:36 PM,46.4,41.0,81,29.77,10.0,NW,4.6,-,N/A,,Clear,320,2011-10-06 01:36:00
5:56 PM,46.4,41.0,81,29.78,10.0,West,3.5,-,N/A,,Clear,280,2011-10-06 01:56:00
6:16 PM,44.6,39.2,81,29.78,10.0,Calm,Calm,-,N/A,,Clear,0,2011-10-06 02:16:00
6:36 PM,44.6,39.2,81,29.79,10.0,Calm,Calm,-,N/A,,Clear,0,2011-10-06 02:36:00
6:56 PM,42.8,39.2,87,29.79,10.0,Calm,Calm,-,N/A,,Clear,0,2011-10-06 02:56:00
7:16 PM,42.8,39.2,87,29.80,10.0,Calm,Calm,-,N/A,,Clear,0,2011-10-06 03:16:00
7:36 PM,42.8,39.2,87,29.80,10.0,Calm,Calm,-,N/A,,Clear,0,2011-10-06 03:36:00
7:56 PM,42.8,39.2,87,29.80,10.0,WNW,4.6,-,N/A,,Clear,300,2011-10-06 03:56:00
8:16 PM,42.8,39.2,87,29.81,10.0,Calm,Calm,-,N/A,,Clear,0,2011-10-06 04:16:00
8:36 PM,39.2,37.4,93,29.81,10.0,South,3.5,-,N/A,,Clear,180,2011-10-06 04:36:00
8:56 PM,42.8,39.2,87,29.81,10.0,SE,3.5,-,N/A,,Clear,140,2011-10-06 04:56:00
9:16 PM,39.2,37.4,93,29.81,10.0,SE,5.8,-,N/A,,Clear,140,2011-10-06 05:16:00
9:36 PM,42.8,39.2,87,29.81,10.0,SE,3.5,-,N/A,,Clear,130,2011-10-06 05:36:00
9:56 PM,41.0,37.4,87,29.81,10.0,SE,8.1,-,N/A,,Clear,140,2011-10-06 05:56:00
10:16 PM,42.8,39.2,87,29.81,10.0,SE,6.9,-,N/A,,Clear,140,2011-10-06 06:16:00
10:36 PM,41.0,37.4,87,29.81,10.0,SE,6.9,-,N/A,,Clear,140,2011-10-06 06:36:00
10:56 PM,41.0,37.4,87,29.81,10.0,SE,5.8,-,N/A,,Clear,140,2011-10-06 06:56:00
11:16 PM,39.2,37.4,93,29.82,10.0,SSE,4.6,-,N/A,,Clear,150,2011-10-06 07:16:00
11:36 PM,39.2,37.4,93,29.82,10.0,SE,5.8,-,N/A,,Clear,140,2011-10-06 07:36:00
11:56 PM,39.2,37.4,93,29.83,10.0,South,3.5,-,N/A,,Clear,170,2011-10-06 07:56:00